1508115600.2,49472,14.38,75004.0,4.51,-23.65,-24.83,0,*7E
1508115601.45,49473,14.31,75000.0,4.51,-23.49,-24.47,0,*79
1508115602.68,49474,14.38,75004.3,4.53,-23.53,-24.61,0,*73
1508115603.93,49475,14.31,75004.5,4.53,-23.53,-24.67,0,*74
1508115605.2,49476,14.31,75006.5,4.51,-23.65,-24.83,0,*7A
1508115606.47,49477,14.38,75008.8,4.51,-23.65,-24.71,0,*76
1508115607.72,49478,14.38,75010.5,4.51,-23.65,-24.77,0,*7F
1508115608.97,49479,14.38,75008.8,4.51,-23.29,-24.31,0,*74
1508115610.21,49480,14.31,75010.8,4.51,-23.19,-24.31,0,*71
1508115611.48,49481,14.38,75012.0,4.51,-23.03,-24.15,0,*7D
1508115612.74,49482,14.38,75008.0,4.51,-22.73,-23.95,0,*77
1508115613.99,49483,14.31,74996.5,4.51,-22.97,-24.11,0,*77
1508115615.24,49484,14.31,74990.3,4.51,-23.53,-24.77,0,*79
1508115616.49,49485,14.31,74984.0,4.51,-23.49,-24.51,0,*77
1508115617.71,49486,14.31,74986.0,4.53,-23.29,-24.35,0,*72
1508115618.94,49487,14.38,74996.3,4.53,-23.33,-24.51,0,*7A
1508115620.16,49488,14.31,74996.8,4.55,-23.43,-24.57,0,*72
1508115621.41,49489,14.31,74994.0,4.51,-22.97,-24.15,0,*79
1508115622.65,49490,14.31,74990.0,4.51,-23.33,-24.47,0,*79
1508115623.85,49491,14.38,75000.8,4.53,-23.39,-24.47,0,*70
1508115625.1,49492,14.31,75002.0,4.53,-23.53,-24.67,0,*7D
1508115626.33,49493,14.31,75004.0,4.53,-23.65,-24.77,0,*78
1508115627.56,49494,14.38,75008.0,4.53,-23.65,-24.61,0,*78
1508115628.78,49495,14.31,75014.0,4.53,-23.53,-24.61,0,*7C
1508115629.99,49496,14.31,75012.3,4.53,-23.79,-24.93,0,*7A
1508115631.23,49497,14.31,75012.5,4.51,-23.29,-24.35,0,*70
1508115632.48,49498,14.31,75008.0,4.51,-23.29,-24.47,0,*7A
1508115633.72,49499,14.38,75010.3,4.51,-23.49,-24.51,0,*7A
1508115634.94,49500,14.38,75010.0,4.51,-23.39,-24.51,0,*7C
1508115636.21,49501,14.38,75008.5,4.51,-23.53,-24.67,0,*74
1508115637.48,49502,14.31,75008.0,4.51,-23.65,-24.67,0,*72
1508115638.69,49503,14.31,75006.8,4.51,-23.39,-24.47,0,*78
1508115639.91,49504,14.38,75006.3,4.51,-23.39,-24.51,0,*78
1508115641.15,49505,14.31,75006.8,4.51,-22.97,-23.95,0,*73
1508115642.4,49506,14.38,75014.0,4.51,-22.57,-23.53,0,*76
1508115643.65,49507,14.31,75012.0,4.51,-22.57,-23.53,0,*77
1508115644.88,49508,14.31,75010.8,4.53,-22.53,-23.65,0,*7B
1508115646.12,49509,14.31,75006.3,4.53,-22.73,-23.95,0,*77
1508115647.36,49510,14.31,75004.0,4.55,-22.67,-23.95,0,*7C
1508115648.61,49511,14.31,75000.5,4.55,-22.77,-23.89,0,*71
1508115649.84,49512,14.31,75000.0,4.55,-22.93,-24.05,0,*7B
1508115651.12,49513,14.38,75006.3,4.55,-23.23,-24.25,0,*72
1508115652.37,49514,14.38,75006.5,4.55,-23.13,-24.21,0,*72
1508115653.59,49515,14.31,75004.0,4.57,-23.39,-24.41,0,*7F
1508115654.86,49516,14.31,75002.3,4.55,-23.29,-24.41,0,*7F
1508115656.08,49517,14.38,75008.8,4.57,-23.43,-24.67,0,*74
1508115657.33,49518,14.31,75010.0,4.57,-23.85,-24.87,0,*7F
1508115658.58,49519,14.31,75004.3,4.57,-23.53,-24.41,0,*7F
1508115659.83,49520,14.38,75008.3,4.55,-23.49,-24.57,0,*7B
1508115661.05,49521,14.31,75006.8,4.57,-23.53,-24.57,0,*73
1508115662.31,49522,14.31,75006.3,4.55,-23.75,-24.71,0,*72
1508115663.59,49523,14.31,75008.5,4.55,-23.33,-24.41,0,*72
1508115664.84,49524,14.31,75006.0,4.55,-23.59,-24.71,0,*7A
1508115666.1,49525,14.38,75010.5,4.57,-23.53,-24.71,0,*73
1508115667.32,49526,14.38,75008.0,4.55,-23.59,-24.57,0,*7C
1508115668.55,49527,14.31,75010.0,4.53,-23.65,-24.77,0,*76
1508115669.78,49528,14.31,75008.8,4.53,-23.95,-25.09,0,*7E
1508115671.01,49529,14.38,75014.8,4.55,-23.75,-24.77,0,*7F
1508115672.22,49530,14.38,75010.3,4.53,-23.59,-24.57,0,*7D
1508115673.44,49531,14.31,75006.8,4.55,-23.79,-24.93,0,*70
1508115674.67,49532,14.38,75010.3,4.53,-23.85,-24.93,0,*76
1508115675.89,49533,14.31,75006.0,4.53,-23.85,-24.97,0,*73
1508115677.17,49534,14.38,75014.0,4.55,-23.95,-25.03,0,*7F
1508115678.37,49535,14.38,75010.8,4.53,-23.79,-24.97,0,*76
1508115679.62,49536,14.38,75008.5,4.55,-23.79,-25.03,0,*7F
1508115680.84,49537,14.31,75006.8,4.53,-23.69,-24.93,0,*71
1508115682.04,49538,14.31,75004.3,4.53,-23.79,-24.93,0,*7F
1508115683.3,49539,14.31,75004.8,4.55,-23.79,-24.87,0,*7D
1508115684.53,49540,14.31,75004.5,4.53,-23.85,-25.09,0,*71
1508115685.78,49541,14.31,75006.5,4.51,-23.95,-25.09,0,*73
1508115687.05,49542,14.31,75004.0,4.51,-23.69,-24.83,0,*70
1508115688.29,49543,14.31,75006.8,4.51,-23.85,-24.97,0,*76
1508115689.54,49544,14.31,75006.8,4.49,-23.53,-24.67,0,*7C
1508115690.81,49545,14.38,75010.3,4.51,-23.69,-24.83,0,*77
1508115692.08,49546,14.31,75006.8,4.51,-23.53,-24.67,0,*77
1508115693.35,49547,14.31,75010.3,4.51,-23.03,-23.99,0,*75
1508115694.59,49548,14.31,75008.8,4.51,-22.83,-23.99,0,*73
1508115695.81,49549,14.31,75010.3,4.53,-22.97,-24.15,0,*76
1508115697.06,49550,14.31,75006.8,4.53,-22.73,-23.85,0,*7A
1508115698.31,49551,14.38,75006.8,4.53,-22.73,-23.99,0,*76
1508115699.56,49552,14.31,75006.8,4.55,-23.49,-24.57,0,*7E
1508115700.78,49553,14.31,75004.8,4.53,-23.33,-24.35,0,*70
1508115702.01,49554,14.31,75002.8,4.53,-23.29,-24.31,0,*78
1508115703.28,49555,14.31,75000.0,4.55,-23.49,-24.71,0,*7D
1508115704.53,49556,14.31,75002.0,4.53,-23.69,-24.83,0,*77
1508115705.78,49557,14.31,75004.0,4.55,-23.89,-25.03,0,*77
1508115706.98,49558,14.31,75002.3,4.53,-23.79,-24.93,0,*79
1508115708.21,49559,14.31,75002.3,4.53,-23.85,-24.97,0,*7F
1508115709.44,49560,14.38,75004.8,4.53,-23.85,-25.09,0,*73
1508115710.67,49561,14.31,75002.8,4.51,-23.79,-25.09,0,*73
1508115711.93,49562,14.31,75000.8,4.51,-23.69,-24.83,0,*72
1508115713.17,49563,14.31,75004.8,4.53,-23.95,-25.09,0,*71
1508115714.39,49564,14.31,75006.3,4.49,-23.99,-24.97,0,*77
1508115715.62,49565,14.31,75008.3,4.49,-24.05,-25.03,0,*78
1508115716.84,49566,14.31,75004.8,4.51,-23.79,-24.93,0,*76
1508115718.1,49567,14.31,75004.0,4.51,-23.85,-25.09,0,*76
1508115719.35,49568,14.38,75004.3,4.51,-23.95,-25.09,0,*78
1508115720.58,49569,14.38,75004.3,4.49,-23.99,-25.13,0,*77
1508115721.81,49570,14.38,75004.0,4.49,-23.89,-25.03,0,*7F
1508115723.06,49571,14.38,75004.3,4.51,-23.99,-25.13,0,*77
1508115724.26,49572,14.31,75000.8,4.49,-23.89,-24.97,0,*71
1508115725.5,49573,14.38,75004.3,4.49,-23.69,-24.83,0,*7B
1508115726.74,49574,14.38,75004.5,4.49,-23.75,-24.87,0,*75
1508115727.96,49575,14.38,75006.5,4.49,-23.85,-24.93,0,*7E
1508115729.17,49576,14.38,75006.0,4.49,-23.75,-24.97,0,*76
1508115730.42,49577,14.31,75002.0,4.47,-23.85,-24.97,0,*76
1508115731.67,49578,14.38,75006.0,4.49,-23.85,-24.87,0,*76
1508115732.91,49579,14.31,75000.0,4.49,-23.69,-24.87,0,*75
1508115734.14,49580,14.31,75002.0,4.47,-23.89,-25.13,0,*7F
1508115735.39,49581,14.38,75006.8,4.47,-23.59,-24.67,0,*71
1508115736.66,49582,14.38,75004.5,4.47,-23.69,-24.83,0,*7B
1508115737.88,49583,14.38,75006.0,4.47,-23.89,-24.97,0,*71
1508115739.11,49584,14.31,75000.8,4.45,-23.95,-25.19,0,*7E
1508115740.36,49585,14.31,75006.0,4.47,-23.99,-25.13,0,*7B
1508115741.56,49586,14.31,75004.0,4.45,-23.89,-25.13,0,*7B
1508115742.82,49587,14.31,75006.0,4.47,-23.75,-24.87,0,*77
1508115744.04,49588,14.31,75004.8,4.47,-23.89,-24.97,0,*7A
1508115745.32,49589,14.31,75006.3,4.47,-23.85,-24.87,0,*76
1508115746.57,49590,14.31,75008.0,4.47,-22.73,-23.75,0,*7C
1508115747.79,49591,14.31,75008.0,4.45,-22.57,-23.53,0,*7D
1508115749.05,49592,14.38,75008.8,4.47,-22.47,-23.43,0,*7C
1508115750.33,49593,14.31,75004.5,4.47,-22.31,-23.19,0,*73
1508115751.58,49594,14.31,75008.3,4.49,-22.47,-23.53,0,*75
1508115752.82,49595,14.31,75002.0,4.51,-22.27,-23.29,0,*76
1508115754.05,49596,14.38,75008.0,4.49,-23.09,-24.15,0,*79
1508115755.27,49597,14.31,75002.8,4.53,-23.19,-24.31,0,*74
1508115756.49,49598,14.31,75002.3,4.53,-22.87,-23.99,0,*78
1508115757.72,49599,14.31,74998.5,4.55,-22.83,-24.05,0,*79
1508115758.95,49600,14.31,74996.5,4.55,-23.43,-24.47,0,*71
1508115760.18,49601,14.31,74996.0,4.53,-23.53,-24.61,0,*73
1508115761.37,49602,14.31,74998.0,4.53,-23.39,-24.47,0,*78
1508115762.63,49603,14.31,75002.3,4.55,-23.59,-24.71,0,*7C
1508115763.88,49604,14.38,74998.5,4.53,-23.53,-24.67,0,*70
1508115765.15,49605,14.31,74996.5,4.55,-23.65,-24.87,0,*7C
1508115766.39,49606,14.31,74996.5,4.53,-23.69,-24.67,0,*7B
1508115767.62,49607,14.31,74996.5,4.53,-23.53,-24.61,0,*75
1508115768.87,49608,14.31,75000.5,4.53,-23.49,-24.67,0,*77
1508115770.12,49609,14.38,75002.5,4.55,-23.49,-24.61,0,*76
1508115771.35,49610,14.31,75002.3,4.53,-23.33,-24.47,0,*71
1508115772.59,49611,14.31,75002.5,4.53,-23.69,-24.83,0,*77
1508115773.84,49612,14.31,75002.0,4.53,-23.69,-24.83,0,*74
1508115775.05,49613,14.31,75002.0,4.53,-23.69,-24.93,0,*74
1508115776.27,49614,14.31,75004.5,4.53,-23.69,-24.93,0,*73
1508115777.54,49615,14.38,75004.8,4.51,-23.65,-24.67,0,*77
1508115778.81,49616,14.38,75002.8,4.51,-23.69,-24.83,0,*72
1508115780.07,49617,14.38,75006.5,4.51,-23.69,-24.83,0,*73
1508115781.32,49618,14.31,75004.8,4.51,-23.49,-24.61,0,*72
1508115782.58,49619,14.31,75002.8,4.51,-23.69,-24.83,0,*7D
1508115783.81,49620,14.31,75004.8,4.51,-23.79,-24.97,0,*73
1508115785.05,49621,14.38,75006.3,4.51,-23.85,-24.93,0,*75
1508115786.28,49622,14.31,75004.0,4.51,-23.79,-24.93,0,*75
1508115787.52,49623,14.31,75000.5,4.51,-23.69,-24.93,0,*75
1508115788.74,49624,14.31,75004.0,4.49,-23.53,-24.57,0,*7A
1508115789.99,49625,14.38,75004.5,4.51,-23.49,-24.61,0,*7C
1508115791.21,49626,14.31,75006.0,4.49,-23.19,-24.35,0,*72
1508115792.48,49627,14.38,75004.3,4.51,-23.19,-24.11,0,*7C
1508115793.75,49628,14.38,75010.3,4.51,-23.03,-24.11,0,*78
1508115794.97,49629,14.38,75008.0,4.51,-22.37,-23.13,0,*7A
1508115796.19,49630,14.31,75010.5,4.53,-22.07,-23.03,0,*72
1508115797.41,49631,14.31,75004.8,4.55,-21.43,-22.37,0,*70
1508115798.7,49632,14.31,75004.0,4.55,-21.53,-22.31,0,*74
1508115799.92,49633,14.31,75002.5,4.61,-21.97,-22.87,0,*77
1508115801.16,49634,14.38,75000.0,4.61,-22.17,-23.43,0,*72
1508115802.36,49635,14.31,74998.0,4.61,-22.41,-23.39,0,*7D
1508115803.61,49636,14.38,75000.8,4.63,-22.57,-23.69,0,*7E
1508115804.83,49637,14.38,74996.3,4.65,-23.13,-24.11,0,*70
1508115806.05,49638,14.38,75000.8,4.65,-23.49,-24.61,0,*77
1508115807.29,49639,14.31,75000.3,4.65,-23.49,-24.67,0,*70
1508115808.51,49640,14.31,74998.5,4.65,-23.19,-24.31,0,*78
1508115809.71,49641,14.31,75000.0,4.65,-23.39,-24.61,0,*7E
1508115810.95,49642,14.31,74994.8,4.63,-23.69,-24.77,0,*79
1508115812.2,49643,14.38,74992.5,4.63,-23.85,-24.93,0,*70
1508115813.43,49644,14.31,74986.5,4.63,-23.79,-24.97,0,*70
1508115814.68,49645,14.38,74990.3,4.63,-23.85,-24.97,0,*72
1508115815.91,49646,14.31,74994.0,4.63,-23.79,-24.97,0,*72
1508115817.16,49647,14.38,74996.5,4.63,-23.85,-24.97,0,*70
1508115818.41,49648,14.38,75002.0,4.57,-23.99,-25.03,0,*79
1508115819.64,49649,14.38,75002.3,4.61,-23.85,-24.97,0,*7C
1508115820.84,49650,14.31,74994.8,4.61,-23.89,-24.97,0,*78
1508115822.09,49651,14.31,74996.5,4.61,-23.85,-24.87,0,*74
1508115823.31,49652,14.31,75000.3,4.57,-23.99,-24.97,0,*7E
1508115824.54,49653,14.38,75004.8,4.57,-23.99,-25.13,0,*72
1508115825.79,49654,14.31,75004.0,4.57,-23.99,-25.03,0,*74
1508115827.02,49655,14.38,75004.8,4.57,-24.05,-25.03,0,*77
1508115828.24,49656,14.31,75010.5,4.57,-24.05,-25.03,0,*74
1508115829.47,49657,14.38,75010.5,4.57,-24.05,-25.03,0,*75
1508115830.7,49658,14.31,75006.0,4.57,-23.53,-24.57,0,*7E
1508115831.92,49659,14.31,75004.0,4.57,-23.59,-24.83,0,*7C
1508115833.2,49660,14.38,75006.3,4.55,-23.95,-25.03,0,*7D
1508115834.43,49661,14.38,75006.8,4.55,-24.05,-25.09,0,*78
1508115835.66,49662,14.31,75002.8,4.55,-24.05,-25.09,0,*7B
1508115836.89,49663,14.31,75004.0,4.53,-24.11,-25.23,0,*71
1508115838.11,49664,14.31,75002.8,4.55,-23.89,-24.93,0,*7C
1508115839.35,49665,14.38,75006.0,4.53,-23.95,-25.09,0,*74
1508115840.58,49666,14.38,75004.8,4.53,-23.99,-25.09,0,*7B
1508115841.86,49667,14.38,75004.3,4.55,-23.95,-25.03,0,*7A
1508115843.09,49668,14.31,75004.0,4.53,-23.95,-25.13,0,*72
1508115844.32,49669,14.31,75006.8,4.53,-23.95,-25.09,0,*78
1508115845.55,49670,14.31,75004.3,4.53,-23.99,-25.13,0,*77
1508115846.78,49671,14.38,75010.8,4.53,-23.95,-25.09,0,*71
1508115848.0,49672,14.31,75008.3,4.53,-23.69,-24.61,0,*7E
1508115849.25,49673,14.31,75008.8,4.51,-23.29,-24.35,0,*78
1508115850.48,49674,14.31,75014.0,4.51,-22.87,-24.11,0,*7C
1508115851.71,49675,14.38,75014.8,4.53,-22.41,-23.53,0,*74
1508115852.98,49676,14.31,75004.5,4.55,-22.47,-23.65,0,*72
1508115854.25,49677,14.31,74998.8,4.55,-23.23,-24.41,0,*71
1508115855.5,49678,14.31,74996.3,4.53,-23.69,-24.83,0,*78
1508115856.75,49679,14.31,74994.0,4.55,-23.75,-24.87,0,*76
1508115858.03,49680,14.31,74992.3,4.55,-23.65,-24.87,0,*71
1508115859.25,49681,14.38,74986.5,4.53,-23.23,-24.31,0,*79
1508115860.5,49682,14.31,74980.3,4.55,-23.49,-24.61,0,*75
1508115861.73,49683,14.38,74980.5,4.55,-23.75,-24.93,0,*76
1508115862.96,49684,14.31,74972.3,4.55,-23.59,-24.61,0,*72
1508115864.19,49685,14.31,74988.5,4.53,-23.65,-24.77,0,*7D
1508115865.44,49686,14.31,74994.3,4.55,-23.75,-24.87,0,*76
1508115866.69,49687,14.31,74988.0,4.55,-23.89,-25.03,0,*79
1508115867.92,49688,14.31,74992.8,4.53,-23.95,-24.97,0,*71
1508115869.15,49689,14.31,75004.0,4.53,-23.95,-24.97,0,*70
1508115870.35,49690,14.31,75008.5,4.53,-23.79,-24.77,0,*74
1508115871.57,49691,14.31,75008.0,4.53,-23.29,-24.35,0,*76
1508115872.82,49692,14.31,75000.0,4.55,-23.29,-24.31,0,*77
1508115874.08,49693,14.38,75000.0,4.55,-23.09,-24.25,0,*71
1508115875.35,49694,14.38,74998.3,4.55,-23.23,-24.25,0,*7E
1508115876.58,49695,14.31,75002.5,4.55,-22.83,-24.05,0,*76
1508115877.82,49696,14.31,74998.8,4.55,-23.49,-24.57,0,*75
1508115879.05,49697,14.38,74998.5,4.55,-23.43,-24.61,0,*7B
1508115880.27,49698,14.38,75002.0,4.55,-22.63,-23.79,0,*79
1508115881.5,49699,14.31,74998.3,4.61,-23.09,-24.15,0,*7F
1508115882.72,49700,14.38,74996.3,4.57,-23.09,-24.15,0,*7B
1508115883.94,49701,14.38,74998.0,4.61,-22.41,-23.53,0,*77
1508115885.15,49702,14.31,75000.5,4.61,-22.93,-24.05,0,*7F
1508115886.37,49703,14.38,75000.8,4.61,-22.63,-23.99,0,*73
1508115887.62,49704,14.31,74996.0,4.61,-22.47,-23.53,0,*74
1508115888.84,49705,14.31,75000.5,4.61,-22.87,-23.99,0,*7F
1508115890.08,49706,14.38,75000.3,4.63,-22.87,-24.11,0,*79
1508115891.33,49707,14.38,75006.0,4.63,-22.67,-23.69,0,*7E
1508115892.54,49708,14.38,75004.5,4.65,-22.67,-23.69,0,*77
1508115893.79,49709,14.38,75000.5,4.65,-22.21,-23.23,0,*7A
1508115895.02,49710,14.31,75002.0,4.65,-21.77,-22.73,0,*76
1508115896.26,49711,14.38,75004.3,4.69,-21.83,-22.73,0,*70
1508115897.48,49712,14.31,75000.5,4.69,-21.77,-22.73,0,*78
1508115898.68,49713,14.38,75006.0,4.73,-21.43,-22.37,0,*75
1508115899.93,49714,14.38,75004.3,4.73,-21.27,-22.21,0,*77
1508115901.13,49715,14.31,75010.5,4.73,-21.73,-22.67,0,*75
1508115902.33,49716,14.31,75004.5,4.73,-21.73,-22.67,0,*76
1508115903.55,49717,14.38,75010.3,4.75,-21.43,-22.27,0,*76
1508115904.78,49718,14.31,75010.3,4.77,-21.93,-23.03,0,*71
1508115906.03,49719,14.31,75006.3,4.77,-22.21,-23.33,0,*79
1508115907.26,49720,14.38,75002.5,4.77,-22.31,-23.59,0,*7E
1508115908.49,49721,14.31,75000.5,4.77,-22.53,-23.65,0,*74
1508115909.71,49722,14.31,75000.5,4.77,-22.77,-23.79,0,*7C
1508115910.97,49723,14.38,74996.5,4.79,-22.77,-23.89,0,*7C
1508115912.21,49724,14.31,74998.0,4.79,-23.23,-24.35,0,*7B
1508115913.46,49725,14.31,74988.8,4.79,-23.59,-24.67,0,*70
1508115914.71,49726,14.31,75000.3,4.79,-23.59,-24.67,0,*73
1508115915.97,49727,14.38,75004.0,4.79,-23.75,-24.71,0,*7B
1508115917.25,49728,14.38,75000.0,4.75,-23.65,-24.71,0,*79
1508115918.45,49729,14.38,75006.0,4.77,-23.43,-24.61,0,*7F
1508115919.72,49730,14.31,75000.5,4.75,-23.65,-24.67,0,*77
1508115920.95,49731,14.31,75002.5,4.77,-23.33,-24.57,0,*74
1508115922.2,49732,14.31,75004.3,4.75,-23.65,-24.77,0,*74
1508115923.41,49733,14.31,75002.0,4.77,-23.59,-24.77,0,*78
1508115924.66,49734,14.31,75004.3,4.75,-23.49,-24.61,0,*7B
1508115925.87,49735,14.38,75004.0,4.77,-23.43,-24.47,0,*76
1508115927.12,49736,14.31,75000.5,4.77,-23.49,-24.71,0,*7A
1508115928.37,49737,14.31,75002.8,4.75,-23.79,-24.83,0,*77
1508115929.63,49738,14.31,75006.5,4.75,-23.53,-24.61,0,*7C
1508115930.87,49739,14.31,75006.5,4.75,-23.69,-24.77,0,*73
1508115932.14,49740,14.31,75006.3,4.75,-23.69,-24.83,0,*76
1508115933.36,49741,14.38,75008.3,4.73,-23.79,-24.83,0,*70
1508115934.59,49742,14.31,75004.3,4.73,-23.49,-24.47,0,*78
1508115935.81,49743,14.31,75000.5,4.73,-22.87,-23.99,0,*7E
1508115937.03,49744,14.31,75000.5,4.73,-22.83,-23.85,0,*70
1508115938.28,49745,14.31,75002.5,4.73,-23.03,-23.99,0,*75
1508115939.5,49746,14.38,75006.3,4.73,-23.23,-24.35,0,*75
1508115940.7,49747,14.31,75002.0,4.73,-22.97,-24.05,0,*79
1508115941.95,49748,14.31,75002.8,4.75,-23.19,-24.31,0,*70
1508115943.17,49749,14.31,75000.3,4.75,-22.67,-23.79,0,*72
1508115944.4,49750,14.38,74998.5,4.77,-22.57,-23.69,0,*7A
1508115945.62,49751,14.38,75000.3,4.77,-22.37,-23.49,0,*7F
1508115946.88,49752,14.31,75002.5,4.77,-22.21,-23.19,0,*7E
1508115948.1,49753,14.31,75002.3,4.77,-22.63,-23.65,0,*72
1508115949.3,49754,14.31,75002.0,4.77,-22.53,-23.59,0,*79
1508115950.53,49755,14.31,75000.3,4.77,-22.37,-23.29,0,*7D
1508115951.76,49756,14.38,74996.5,4.79,-22.57,-23.59,0,*71
1508115953.01,49757,14.31,74998.8,4.79,-23.13,-24.21,0,*79
1508115954.26,49758,14.31,75002.0,4.79,-23.13,-24.11,0,*75
1508115955.52,49759,14.31,74998.8,4.79,-23.09,-24.21,0,*7C
1508115956.74,49760,14.31,75004.0,4.81,-23.13,-24.25,0,*7E
1508115957.99,49761,14.31,75002.8,4.79,-23.29,-24.51,0,*72
1508115959.24,49762,14.31,74996.8,4.79,-23.59,-24.67,0,*73
1508115960.51,49763,14.38,74996.0,4.79,-23.69,-24.71,0,*76
1508115961.76,49764,14.38,75006.8,4.79,-23.85,-24.93,0,*7F
1508115963.02,49765,14.31,75000.5,4.79,-23.89,-24.83,0,*73
1508115964.27,49766,14.38,75006.3,4.79,-23.89,-24.87,0,*74
1508115965.49,49767,14.38,75006.5,4.77,-23.89,-24.87,0,*7B
1508115966.7,49768,14.31,75002.8,4.77,-23.43,-24.61,0,*7A
1508115967.93,49769,14.38,75006.8,4.77,-23.89,-24.87,0,*75
1508115969.13,49770,14.38,75008.0,4.77,-23.59,-24.77,0,*7F
1508115970.39,49771,14.38,75008.0,4.75,-23.53,-24.61,0,*71
1508115971.64,49772,14.38,75004.3,4.75,-23.53,-24.61,0,*72
1508115972.85,49773,14.31,75006.5,4.77,-23.43,-24.47,0,*74
1508115974.1,49774,14.38,75008.5,4.75,-23.53,-24.61,0,*74
1508115975.33,49775,14.38,75010.0,4.75,-23.79,-24.77,0,*7A
1508115976.58,49776,14.38,75010.5,4.75,-23.53,-24.77,0,*71
1508115977.86,49777,14.31,75006.8,4.75,-23.65,-24.67,0,*74
1508115979.08,49778,14.38,75010.0,4.77,-23.19,-24.31,0,*71
1508115980.33,49779,14.31,75004.0,4.77,-23.29,-24.41,0,*74
1508115981.53,49780,14.31,75006.5,4.77,-22.63,-23.75,0,*7D
1508115982.75,49781,14.38,75006.8,4.79,-22.87,-23.89,0,*7B
1508115984.0,49782,14.38,75002.8,4.79,-22.31,-23.39,0,*7E
1508115985.23,49783,14.31,74996.3,4.77,-22.93,-23.99,0,*73
1508115986.45,49784,14.38,74998.8,4.77,-23.29,-24.47,0,*70
1508115987.68,49785,14.38,75000.8,4.77,-23.65,-24.61,0,*7D
1508115988.88,49786,14.38,75002.8,4.77,-22.93,-23.89,0,*77
1508115990.14,49787,14.38,75002.3,4.79,-23.43,-24.41,0,*77
1508115991.41,49788,14.38,75002.8,4.79,-23.23,-24.41,0,*7E
1508115992.63,49789,14.31,74996.3,4.81,-23.59,-24.67,0,*71
1508115993.89,49790,14.38,74996.3,4.79,-23.75,-24.83,0,*7A
1508115995.14,49791,14.31,74996.8,4.79,-23.89,-24.83,0,*78
1508115996.4,49792,14.38,75002.0,4.79,-23.75,-24.71,0,*75
1508115997.62,49793,14.38,74996.0,4.77,-23.95,-24.93,0,*78
1508115998.85,49794,14.38,75004.0,4.79,-23.43,-24.57,0,*72
1508116000.08,49795,14.38,75006.0,4.77,-23.49,-24.57,0,*77
1508116001.29,49796,14.31,75002.0,4.77,-23.43,-24.61,0,*7B
1508116002.54,49797,14.38,74998.3,4.77,-23.19,-24.41,0,*77
1508116003.74,49798,14.38,74990.8,4.77,-23.13,-24.31,0,*75
1508116005.0,49799,14.31,74988.0,4.77,-23.65,-24.71,0,*71
1508116006.22,49800,14.31,75000.5,4.77,-23.95,-24.97,0,*79
1508116007.5,49801,14.38,75004.5,4.79,-23.85,-24.87,0,*76
1508116008.7,49802,14.38,75006.0,4.77,-23.79,-24.77,0,*77
1508116009.93,49803,14.31,75004.5,4.77,-23.79,-24.87,0,*79
1508116011.18,49804,14.31,75002.5,4.75,-23.85,-24.93,0,*7A
1508116012.39,49805,14.31,74998.3,4.77,-23.79,-24.77,0,*70
1508116013.64,49806,14.31,75000.0,4.75,-23.85,-24.93,0,*78
1508116014.89,49807,14.38,75008.5,4.77,-23.65,-24.71,0,*79
1508116016.17,49808,14.38,75006.5,4.75,-23.85,-24.83,0,*77
1508116017.43,49809,14.31,75002.0,4.75,-23.69,-24.83,0,*74
1508116018.71,49810,14.38,75006.5,4.75,-23.65,-24.67,0,*7A
1508116019.96,49811,14.31,75006.3,4.75,-23.79,-24.83,0,*7C
1508116021.21,49812,14.31,75004.0,4.77,-23.49,-24.71,0,*73
1508116022.44,49813,14.38,75006.5,4.73,-23.79,-24.83,0,*78
1508116023.69,49814,14.31,75002.3,4.75,-23.79,-24.83,0,*79
1508116024.92,49815,14.31,75002.0,4.73,-23.53,-24.77,0,*7D
1508116026.14,49816,14.31,75002.5,4.73,-23.65,-24.77,0,*7B
1508116027.36,49817,14.31,75002.3,4.73,-23.69,-24.77,0,*76
1508116028.58,49818,14.38,75002.8,4.73,-23.85,-24.93,0,*71
1508116029.81,49819,14.38,75006.0,4.73,-23.95,-24.93,0,*71
1508116031.03,49820,14.31,75002.8,4.73,-23.85,-24.93,0,*7A
1508116032.28,49821,14.38,75006.5,4.73,-23.95,-25.03,0,*72
1508116033.53,49822,14.38,75008.0,4.73,-23.99,-25.03,0,*7D
1508116034.73,49823,14.31,75002.5,4.73,-24.05,-25.13,0,*7F
1508116035.94,49824,14.38,75002.5,4.73,-24.05,-25.19,0,*72
1508116037.16,49825,14.31,75002.5,4.73,-23.95,-24.93,0,*7E
1508116038.38,49826,14.38,75006.5,4.73,-23.85,-24.97,0,*78
1508116039.59,49827,14.31,75002.5,4.73,-23.79,-24.77,0,*74
1508116040.82,49828,14.31,75000.0,4.73,-23.09,-24.21,0,*7F
1508116042.04,49829,14.31,75002.5,4.73,-22.87,-23.85,0,*70
1508116043.29,49830,14.38,75004.0,4.73,-22.73,-23.85,0,*73
1508116044.51,49831,14.38,75006.8,4.73,-22.41,-23.53,0,*78
1508116045.73,49832,14.31,75000.5,4.73,-22.53,-23.65,0,*7D
1508116046.92,49833,14.31,75002.0,4.73,-22.41,-23.39,0,*76
1508116048.14,49834,14.38,75002.0,4.75,-22.87,-23.79,0,*79
1508116049.39,49835,14.31,74996.0,4.75,-23.09,-24.15,0,*72
1508116050.64,49836,14.38,75000.5,4.77,-23.33,-24.41,0,*7B
1508116051.89,49837,14.38,74998.8,4.75,-23.23,-24.35,0,*7A
1508116053.14,49838,14.38,74998.3,4.75,-23.33,-24.35,0,*74
1508116054.33,49839,14.38,74998.0,4.77,-23.39,-24.51,0,*7F
1508116055.54,49840,14.38,75004.3,4.77,-23.43,-24.47,0,*7B
1508116056.73,49841,14.38,75008.5,4.77,-22.83,-23.89,0,*72
1508116057.93,49842,14.31,75004.0,4.77,-22.83,-23.79,0,*7E
1508116059.14,49843,14.38,75008.5,4.77,-22.67,-23.75,0,*79
1508116060.41,49844,14.31,75010.0,4.79,-22.31,-23.53,0,*77
1508116061.61,49845,14.31,75008.5,4.81,-22.41,-23.43,0,*77
1508116062.89,49846,14.31,75008.8,4.79,-22.17,-23.29,0,*7C
1508116064.12,49847,14.31,75006.0,4.81,-21.87,-23.09,0,*72
1508116065.32,49848,14.38,75004.3,4.81,-21.47,-22.63,0,*7C
1508116066.54,49849,14.38,74996.5,4.85,-22.07,-23.33,0,*7A
1508116067.75,49850,14.38,74998.0,4.87,-22.87,-23.89,0,*79
1508116069.0,49851,14.31,75000.5,4.87,-22.93,-24.15,0,*7F
1508116070.22,49852,14.31,75004.0,4.87,-23.39,-24.61,0,*7E
1508116071.47,49853,14.31,75002.8,4.87,-23.49,-24.61,0,*78
1508116072.7,49854,14.31,75000.8,4.85,-23.79,-24.83,0,*72
1508116073.92,49855,14.38,75002.0,4.85,-23.69,-24.77,0,*79
1508116075.16,49856,14.31,74992.3,4.85,-23.53,-24.67,0,*72
1508116076.41,49857,14.31,74992.3,4.85,-23.53,-24.67,0,*73
1508116077.64,49858,14.31,74994.3,4.85,-23.79,-24.83,0,*7E
1508116078.89,49859,14.38,74992.5,4.85,-23.85,-24.87,0,*78
1508116080.13,49860,14.31,74990.5,4.85,-23.49,-24.67,0,*7C
1508116081.34,49861,14.38,74996.0,4.81,-23.39,-24.67,0,*7E
1508116082.57,49862,14.38,74992.0,4.81,-23.53,-24.57,0,*72
1508116083.81,49863,14.38,74994.5,4.81,-23.69,-24.71,0,*7E
1508116085.06,49864,14.38,74994.5,4.81,-23.85,-24.87,0,*72
1508116086.29,49865,14.38,74996.5,4.81,-23.75,-24.87,0,*7C
1508116087.53,49866,14.38,75006.0,4.79,-24.05,-25.09,0,*7F
1508116088.76,49867,14.31,75006.0,4.79,-24.05,-25.09,0,*7E
1508116090.01,49868,14.38,75008.8,4.79,-23.43,-24.67,0,*7D
1508116091.28,49869,14.38,75010.3,4.79,-23.69,-24.67,0,*74
1508116092.51,49870,14.31,75004.0,4.81,-23.75,-24.87,0,*78
1508116093.76,49871,14.38,75006.5,4.79,-23.89,-24.83,0,*79
1508116094.96,49872,14.38,75010.0,4.77,-23.79,-24.77,0,*70
1508116096.22,49873,14.31,75004.0,4.79,-23.75,-24.87,0,*7C
1508116097.49,49874,14.31,75008.5,4.79,-23.69,-24.87,0,*76
1508116098.75,49875,14.38,75006.5,4.79,-23.75,-24.83,0,*7E
1508116099.97,49876,14.38,75002.5,4.77,-23.33,-24.57,0,*78
1508116101.25,49877,14.31,74992.0,4.75,-23.53,-24.71,0,*79
1508116102.48,49878,14.31,74994.3,4.77,-23.59,-24.71,0,*7E